Location: Observatorio Las Palmas
(29.0667°N, 110.9333°W)
Time: 11:07:21
(UTC-07:00)

Daily predictions for brighter satellites

Satellite Brightness Start Highest point End
(mag) Time Altitude Azimuth Time Altitude Azimuth Time Altitude Azimuth
CZ-4 R/B 2.8 18:30:09 10° S 18:34:07 46° W 18:38:10 10° NNW
Cosmos 841 Rocket 3.7 18:31:49 10° SSW 18:36:57 78° WNW 18:42:05 10° NNE
Cosmos 482 Debris 4.0 18:33:32 10° NW 18:37:17 45° NE 18:39:39 10° ESE
Lacrosse 5 4.3 18:36:48 10° WNW 18:40:49 24° WSW 18:44:49 10° S
USA 229 DEB 3.9 18:35:42 10° NNW 18:42:58 90° NE 18:50:21 10° SSE
USA 229 3.9 18:35:48 10° NNW 18:43:04 89° ENE 18:50:26 10° SSE
SL-27 R/B 3.7 18:42:39 10° SSE 18:45:26 22° E 18:48:16 10° NE
Cosmos 540 Rocket 3.5 18:40:51 10° S 18:45:49 56° ESE 18:50:49 10° NNE
Cosmos 2150 Rocket 4.1 18:40:27 10° N 18:45:50 72° ENE 18:51:15 10° SSE
COSMO-SKYMED 1 3.8 18:43:43 10° N 18:47:53 47° WNW 18:52:02 10° SSW
Cosmos 1726 Rocket 4.4 18:43:50 10° SSW 18:48:06 54° W 18:52:20 10° N
Cosmos 1937 Rocket 3.5 18:45:05 10° NNW 18:50:23 90° SSW 18:55:36 10° SSE
USA 81 4.1 18:45:25 10° N 18:50:38 59° E 18:55:48 10° SSE
Cosmos 1378 3.1 18:47:34 10° N 18:51:20 67° E 18:55:04 10° SSE
Cosmos 1758 Rocket 3.7 18:47:35 10° N 18:52:05 83° W 18:56:34 10° S
NOSS 3-1 (C) 4.3 18:47:18 10° NNW 18:55:04 57° ENE 19:03:27 10° SE
Cosmos 2369 Rocket 4.4 18:53:23 10° NW 18:58:05 28° WSW 19:02:46 10° SSW
Cosmos 1707 2.9 18:55:37 10° N 18:59:33 80° W 19:03:26 10° S
COSMOS 2406 3.5 18:54:35 10° SSW 19:00:15 75° WNW 19:05:59 10° NNE
Cosmos 1766 3.2 18:56:37 10° S 19:00:29 60° E 19:04:20 10° NNE
SJ 16-02 3.1 18:59:35 10° NE 19:01:43 13° ENE 19:02:00 13° ENE
Cosmos 1356 Rocket 3.6 19:00:04 10° N 19:04:17 53° E 19:08:28 10° SSE
Meteor 1-22 Rocket 4.2 18:59:01 10° S 19:04:46 77° E 19:10:18 10° N
Cosmos 2228 4.0 19:02:05 10° SSW 19:06:20 51° W 19:10:34 10° N
ISS -1.7 19:06:04 10° W 19:08:51 25° NW 19:11:38 10° NNE
Cosmos 1833 Rocket 4.1 19:07:06 10° SE 19:09:31 16° ESE 19:09:31 16° ESE
ALOS 2.3 19:10:24 10° S 19:15:02 82° WSW 19:19:44 10° NNW
Milstar 3 Cent rocket 2.1 19:10:00 10° WSW 19:16:14 68° S 19:19:07 23° E
Meteor 2-5 Rocket 4.0 19:11:15 10° NNW 19:17:02 75° W 19:22:39 10° S
FengYun 1-2 T 4.3 19:13:12 10° SSE 19:18:40 56° ENE 19:24:06 10° N
Centaur D AC-29 2.7 19:01:31 10° WSW 19:21:11 58° S 19:24:06 24° ESE
Cosmos 2074 Rocket 4.2 19:15:26 10° S 19:21:36 75° W 19:27:49 10° N
Cosmos 2154 Rocket 4.1 19:16:11 10° SSE 19:22:10 52° E 19:28:12 10° NNE
FREGAT/IRIS 2.5 19:22:58 10° S 19:25:59 88° W 19:29:01 10° N
Cosmos 1758 3.6 19:22:21 10° SSE 19:26:10 44° E 19:29:59 10° NNE
Cosmos 1812 Rocket 3.4 19:24:52 10° S 19:29:18 78° E 19:33:46 10° N
Cosmos 1805 3.1 19:26:44 10° S 19:30:37 85° E 19:34:31 10° N
FALCON 9 R/B 2.3 19:31:01 10° WNW 19:33:52 41° NNE 19:36:10 26° ENE
Cosmos 2082 Rocket 3.0 19:31:45 10° SSE 19:35:35 29° ESE 19:35:35 29° ESE
Cosmos 2341 Rocket 4.1 19:31:39 10° SSE 19:37:32 48° E 19:43:27 10° NNE
CZ-2D R/B 4.1 19:39:25 32° NE 19:39:25 32° NE 19:42:01 10° N
Resurs 01 Rocket 2.6 19:39:30 30° NE 19:39:30 30° NE 19:42:37 10° N
ATLAS 5 CENTAUR R/B 1.9 19:34:53 10° S 19:39:07 43° ESE 19:39:23 43° ESE
Meteor 2-8 Rocket 4.3 19:37:22 10° N 19:43:29 80° E 19:49:33 10° S
GP-B 3.0 19:40:42 10° NNE 19:45:05 59° E 19:46:26 40° SSE
USA 234 3.6 19:38:52 11° SSE 19:45:06 64° SW 19:51:36 10° NW
Centaur AC-116 3.4 19:39:08 10° W 19:45:35 41° SSW 19:46:08 38° S
BREEZE-M DEB (TANK) 3.0 19:44:05 10° WSW 19:46:33 42° W 19:46:33 42° W
Lacrosse 4 Rocket 3.5 19:52:34 10° S 19:53:38 17° S 19:53:38 17° S
Nadezhda 3 Rocket 3.8 19:52:30 10° N 19:58:46 73° E 20:02:32 25° SSE
Cosmos 372 Rocket 3.9 19:54:24 10° NNW 19:59:41 88° ENE 20:01:24 44° SSE
Geosat 4.4 19:59:34 23° S 20:02:36 62° WSW 20:07:35 10° NNW
Envisat 3.5 20:04:28 43° NNE 20:04:28 43° NNE 20:08:14 10° N
Cosmos 2285 Rocket 3.9 19:58:02 10° S 20:04:26 81° ESE 20:10:53 10° NNE
Cosmos 1809 Rocket 4.4 19:58:52 10° S 20:04:53 60° E 20:10:54 10° NNE
Cosmos 1125 Rocket 3.7 19:59:53 10° NNW 20:05:10 71° WSW 20:07:42 31° S
OAO 3 Rocket 3.1 20:02:08 10° WSW 20:06:50 81° SSW 20:06:50 81° SSW
Mugunghwa Rocket 4.2 19:59:54 10° WSW 20:07:07 58° SSE 20:08:13 52° SE
Cosmos 1295 Rocket 4.3 20:02:18 10° S 20:08:23 80° E 20:14:29 10° N
SJ-6B 4.4 20:07:07 12° SSW 20:10:23 34° W 20:14:01 10° NNW
Yuri Rocket 3.3 20:06:25 10° W 20:10:29 63° WSW 20:10:29 63° WSW
Gbstr 26 Del rocket 3.5 20:07:53 10° SW 20:12:36 74° NW 20:13:43 55° NNE
Cosmos 1953 3.5 20:12:52 10° SSW 20:16:42 42° W 20:20:33 10° N
SL-8 Rocket 4.4 20:23:07 47° NNE 20:23:07 47° NNE 20:27:28 10° N
ATLAS 2AS CENTAUR R/B 3.9 20:22:18 10° N 20:28:03 32° NE 20:28:03 32° NE
SJ 16-02 3.2 20:36:22 10° NNW 20:39:03 29° WNW 20:39:03 29° WNW
NOSS 3-3 (A) 4.4 20:35:54 10° SW 20:41:46 58° WNW 20:43:27 44° N
NOSS 3-3 (C) 4.3 20:35:59 10° SW 20:41:52 59° WNW 20:43:20 47° N
Cosmos 1833 Rocket 4.2 20:48:35 10° SW 21:01:49 - NNE 20:51:29 29° WSW
Cosmos 2082 Rocket 4.5 21:15:55 10° WSW 21:27:22 - N 21:17:43 18° WSW
